N3FWE Weather Reports


time (UTC)temp
C
wind
direction
speed
KPH
gust
KPH
rain 1hr
cm
rain 24hr
cm
rain mn
cm
humidity
%
barometer
mb
20260504081012 2 283 0.0 0.0 0.00 0.00 0.00 81 1015.0
20260504050014 5 283 0.0 0.0 0.00 0.00 0.00 74 1015.2
20260504045013 5 283 0.0 0.0 0.00 0.00 0.00 74 1015.2
20260504044015 5 283 0.0 0.0 0.00 0.00 0.00 74 1015.3
20260504043015 5 283 0.0 0.0 0.00 0.00 0.00 73 1015.3
20260504042015 6 283 0.0 0.0 0.00 0.00 0.00 72 1015.4
20260504041015 6 283 0.0 0.0 0.00 0.00 0.00 70 1015.3
20260504040018 6 283 0.0 3.2 0.00 0.00 0.00 70 1015.5
20260504035015 6 283 0.0 1.6 0.00 0.00 0.00 72 1015.5
20260504034016 6 283 0.0 3.2 0.00 0.00 0.00 70 1015.2
20260504033015 6 283 0.0 1.6 0.00 0.00 0.00 70 1015.0
20260504032015 6 283 1.6 4.8 0.00 0.00 0.00 68 1015.0
20260504031015 7 283 0.0 0.0 0.00 0.00 0.00 69 1015.0
20260504030015 7 283 0.0 0.0 0.00 0.00 0.00 68 1015.1
20260504025015 7 283 0.0 0.0 0.00 0.00 0.00 68 1015.0
20260504024015 7 283 0.0 0.0 0.00 0.00 0.00 68 1015.0
20260504023015 7 283 0.0 0.0 0.00 0.00 0.00 67 1015.1
20260504022014 8 283 0.0 0.0 0.00 0.00 0.00 65 1014.9
20260504021014 8 283 0.0 0.0 0.00 0.00 0.00 65 1014.9
20260504020015 8 283 0.0 0.0 0.00 0.00 0.00 63 1015.0
20260504015014 9 283 0.0 0.0 0.00 0.00 0.00 63 1014.9
20260504014014 10 283 0.0 0.0 0.00 0.00 0.00 61 1014.8
20260504013014 10 283 0.0 0.0 0.00 0.00 0.00 58 1014.7
20260504012014 10 283 0.0 0.0 0.00 0.00 0.00 57 1014.7
20260504011015 11 283 0.0 0.0 0.00 0.00 0.00 54 1014.6
20260504010014 11 283 0.0 0.0 0.00 0.00 0.00 52 1014.4
20260504005016 12 283 0.0 0.0 0.00 0.00 0.00 50 1014.5
20260504004014 12 283 0.0 0.0 0.00 0.00 0.00 46 1014.5
20260504003014 13 283 0.0 0.0 0.00 0.00 0.00 44 1014.3
20260504002014 13 283 1.6 3.2 0.00 0.00 0.00 42 1014.2
20260504001014 14 283 0.0 3.2 0.00 0.00 0.00 41 1014.2
20260504000014 14 283 3.2 6.4 0.00 0.00 0.00 39 1014.1
20260503235014 15 288 3.2 12.9 0.00 0.00 0.00 38 1014.0
20260503234014 15 267 6.4 12.9 0.00 0.00 0.00 37 1013.9
20260503233014 15 288 6.4 19.3 0.00 0.00 0.00 36 1013.8
20260503232014 15 288 6.4 12.9 0.00 0.00 0.00 36 1013.8
20260503231014 15 261 8.0 24.1 0.00 0.00 0.00 35 1013.7
20260503230014 16 269 8.0 17.7 0.00 0.00 0.00 36 1013.7
20260503225014 16 290 6.4 16.1 0.00 0.00 0.00 35 1013.8
20260503224014 16 263 9.7 20.9 0.00 0.00 0.00 34 1013.8
20260503223014 16 243 9.7 22.5 0.00 0.00 0.00 34 1013.8
20260503222014 16 253 9.7 22.5 0.00 0.00 0.00 34 1013.8
20260503221014 16 252 9.7 22.5 0.00 0.00 0.00 34 1013.8
20260503220015 16 247 11.3 22.5 0.00 0.00 0.00 34 1013.7
20260503215014 16 247 11.3 29.0 0.00 0.00 0.00 35 1013.8
20260503214014 16 333 8.0 19.3 0.00 0.00 0.00 34 1013.7
20260503213013 16 309 6.4 22.5 0.00 0.00 0.00 35 1013.8
20260503212013 16 294 12.9 30.6 0.00 0.00 0.00 34 1013.7
20260503211014 16 288 9.7 24.1 0.00 0.00 0.00 35 1013.6
20260503210014 16 5 9.7 24.1 0.00 0.00 0.00 34 1013.7
20260503205014 16 278 9.7 20.9 0.00 0.00 0.00 35 1013.7
20260503204014 16 295 11.3 24.1 0.00 0.00 0.00 35 1013.7
20260503203015 16 251 14.5 30.6 0.00 0.00 0.00 34 1013.7
20260503202014 16 272 8.0 25.7 0.00 0.00 0.00 37 1013.8
20260503201014 16 258 6.4 14.5 0.00 0.00 0.00 35 1013.9
20260503200014 15 264 9.7 30.6 0.00 0.00 0.00 34 1014.0
20260503195014 15 30 6.4 17.7 0.00 0.00 0.00 35 1014.1
20260503194014 16 318 11.3 33.8 0.00 0.00 0.00 33 1014.2
20260503193014 16 229 9.7 22.5 0.00 0.00 0.00 34 1014.3
20260503192013 16 290 11.3 30.6 0.00 0.00 0.00 34 1014.3
20260503191014 16 262 8.0 19.3 0.00 0.00 0.00 36 1014.4
20260503190012 16 292 9.7 22.5 0.00 0.00 0.00 34 1014.7
20260503185013 16 293 11.3 29.0 0.00 0.00 0.00 35 1014.8
20260503184015 16 262 9.7 22.5 0.00 0.00 0.00 34 1014.9
20260503183014 16 234 8.0 25.7 0.00 0.00 0.00 34 1015.1
20260503182014 16 360 6.4 19.3 0.00 0.00 0.00 36 1015.0
20260503181013 15 207 8.0 24.1 0.00 0.00 0.00 35 1015.0
20260503180014 15 5 11.3 25.7 0.00 0.00 0.00 33 1015.0
20260503175014 15 257 11.3 29.0 0.00 0.00 0.00 37 1015.1
20260503174015 15 257 6.4 27.4 0.00 0.00 0.00 37 1015.2
20260503173014 15 48 8.0 22.5 0.00 0.00 0.00 33 1015.1
20260503172014 15 286 9.7 29.0 0.00 0.00 0.00 38 1015.4
20260503171013 15 250 11.3 29.0 0.00 0.00 0.00 40 1015.4
20260503151014 11 274 8.0 19.3 0.00 0.00 0.00 40 1016.5
20260503131012 8 313 4.8 14.5 0.00 0.00 0.00 46 1016.8